Find Starlink 5358

NORAD ID: 57143 Int'l Des: 2023-090 Owner: SPXS Country: US Constellation: starlink operational
LEOCIRCULAR

Live-Position

3D-Globus wird geladen...

Über Starlink 5358

Beschreibung wird geladen...

Nächste Überflüge

Passes for default location (London). Set your location on the main map for personalized predictions.

Höhenverlauf

Loading altitude history...

Zweizeiliger Elementsatz

1 57143U 23090AU 26105.86859206 -.00000213 00000-0 17479-5 0 9992
2 57143 43.0031 53.0104 0000997 265.9450 94.1287 15.26742520156043
Epoch: 15. Apr. 2026 • Age: 10 hours

Aktueller Status

Höhe 488.9 km
Geschwindigkeit 7.63 km/s
Subsatellitenpunkt 41.05°N, 175.68°E
Startdatum 23. Juni 2023
Alter 2.8 years
Typ internet

Technische Details

Klassifizierung Payload
Masse 305.00 kg
Trockenmasse 290.00 kg
Gesamtmasse 305.00 kg
Länge 0.20 m
Durchmesser 2.80 m
Spannweite 9.00 m
Form Box + pan
Hersteller SPXS
Bus-Typ Starlink
Phasenstatus In Orbit
Besitzer/Staat SPXS/US

Most Searched